Flag for U.S.A. Weather past 2 weeks in Boulder, Colorado, U.S.A.

Now
54 °F

Clear.


Feels Like: 50 °F
Forecast: 42 / 65 °F
Wind: 13 mph from Northwest

Location: Broomfield / Jeffco

Current Time: Mar 29, 2015 at 3:57:44 AM

Latest Report: Mar 29, 2015 at 3:35 AM


Visibility: 10 mi

Pressure: 30.12 "Hg

Humidity: 19%

Dew point: 12 °F

Location of BoulderLocation

Historic Weather in Boulder — Graph

°F

Boulder temperature yesterday

Maximum temperature yesterday: 75 °F (at 12:45 PM)
Minimum temperature yesterday: 52 °F (at 3:36 AM)
Average temperature yesterday: 61 °F

Past Weeks' High & Low Weather Summary

 TemperatureHumidityPressure
High84 °F (Mar 27, 3:48 PM)100% (Mar 25, 7:47 AM)30.41 "Hg (Mar 25, 7:47 AM)
Low32 °F (Mar 25, 9:51 AM)9% (Mar 15, 1:51 PM)29.78 "Hg (Mar 23, 4:45 PM)
Average49 °F48%30.11 "Hg
* Reported Mar 14 2:14 AM — Mar 29 2:36 AM, Boulder, Weather by CustomWeather, © 2015

Note: Actual official high and low records may vary slightly from our data, if they occured in-between our weather recording intervals... More about our weather records

Advertising

Boulder weather history for previous 24 hours

 ConditionsComfort  
Time TempWeatherWind HumidityBarometerVisibility
2:36 AM
Sun, Mar 29
59 °FClear.16 mph16%30.09 "Hg10 mi
2:16 AM61 °FClear.20 mph13%30.08 "Hg10 mi
1:55 AM61 °FClear.21 mph15%30.06 "Hg10 mi
1:36 AM61 °FClear.32 mph19%30.05 "Hg10 mi
1:16 AM61 °FClear.30 mph19%30.04 "Hg10 mi
12:56 AM61 °FClear.20 mph23%30.04 "Hg10 mi
12:36 AM59 °FClear.15 mph29%30.03 "Hg10 mi
12:16 AM61 °FClear.15 mph27%30.03 "Hg10 mi
11:56 PM
Sat, Mar 28
57 °FClear.13 mph36%30.02 "Hg10 mi
11:35 PM59 °FClear.5 mph34%30.03 "Hg10 mi
11:16 PM61 °FClear.21 mph34%30.01 "Hg10 mi
9:50 PM64 °FPassing clouds.22 mph26%30.01 "Hg30 mi
8:48 PM64 °FPassing clouds.6 mph22%29.99 "Hg40 mi
7:48 PM66 °FPassing clouds.6 mph18%29.97 "Hg50 mi
6:45 PM73 °FPassing clouds.15 mph14%29.96 "Hg50 mi
5:55 PM75 °FScattered clouds.14 mph13%29.97 "Hg60 mi
4:50 PM75 °FScattered clouds.25 mph13%29.96 "Hg60 mi
3:47 PM75 °FPassing clouds.23 mph13%29.98 "Hg60 mi
2:45 PM75 °FPassing clouds.15 mph13%30.00 "Hg30 mi
1:50 PM75 °FPassing clouds.13 mph13%30.01 "Hg70 mi
12:45 PM75 °FPassing clouds.13 mph13%30.05 "Hg70 mi
11:45 AM73 °FPassing clouds.22 mph14%30.07 "Hg70 mi
10:45 AM70 °FSunny.17 mph21%30.08 "Hg60 mi
9:45 AM64 °FSunny.9 mph26%30.09 "Hg60 mi
8:47 AM61 °FSunny.6 mph29%30.09 "Hg60 mi
7:45 AM59 °FClear.10 mph31%30.10 "Hg30 mi
6:45 AM54 °FClear.8 mph35%30.10 "Hg30 mi
5:56 AM54 °FClear.9 mph35%30.09 "Hg10 mi
5:36 AM54 °FClear.6 mph35%30.09 "Hg10 mi
5:16 AM54 °FClear.9 mph35%30.09 "Hg10 mi
4:56 AM52 °FClear.8 mph38%30.08 "Hg10 mi
4:36 AM52 °FClear.10 mph41%30.09 "Hg10 mi
4:16 AM52 °FClear.12 mph41%30.08 "Hg10 mi
3:56 AM52 °FClear.13 mph41%30.08 "Hg10 mi
3:36 AM52 °FClear.12 mph41%30.08 "Hg10 mi
3:16 AM54 °FClear.13 mph35%30.09 "Hg10 mi
Weather by CustomWeather, © 2015

See weather overviewHow to use our weather pages